Location: Newark
(51.3318°N, 0.0053°E)
Time: 12:45:16
(UTC+00:00)

RS-44 - Pass Details

Date: 29 June 2022
Orbit: 1175 x 1510 km, 82.5° (Epoch: 07 August)

Event Time Altitude Azimuth Distance (km) Brightness Sun altitude
Rises 22:33:27 0° 234° (SW) 4,380 ? -12.9°
Reaches altitude 10° 22:36:43 10° 246° (WSW) 3,461 ? -13.1°
Maximum altitude 22:43:41 29° 303° (WNW) 2,423 ? -13.4°
Drops below altitude 10° 22:51:02 10° 0° (N) 3,646 ? -13.8°
Sets 22:54:36 0° 12° (NNE) 4,652 ? -14.0°
